477  
ASUS43 KBIS 130710  
RWRND  
 
NORTH DAKOTA REGIONAL WEATHER ROUNDUP  
NATIONAL WEATHER SERVICE BISMARCK ND  
200 AM CDT TUE APR 13 2021  
 
NOTE: "FAIR" INDICATES FEW OR NO CLOUDS BELOW 12,000 FEET WITH NO  
SIGNIFICANT WEATHER AND/OR S TO VISIBILITY
.  
 
 
NDZ001>003-009>011-017-130800-  
NORTHWEST NORTH DAKOTA  
 
CITY SKY/WX TMP DP RH WIND PRES REMARKS
 
WILLISTON LGT SNOW 24 21 88 NW23G36 30.20R FOG WCI 9  
MINOT CLOUDY 23 17 78 NW16 30.10R WCI 10  
MINOT AFB FLURRIES 22 18 85 N16G22 30.09S WCI 8  

 
 
NDZ018>021-031>035-040>046-130800-  
SOUTHWEST NORTH DAKOTA  
 
CITY SKY/WX TMP DP RH WIND PRES REMARKS
 
BISMARCK CLOUDY 24 15 68 NW13 30.12R WCI 12  
DICKINSON CLOUDY 24 18 77 NW22G29 30.12S WCI 9  
GARRISON N/A 22 18 85 MISG 30.10S  
HETTINGER ARPT CLOUDY N/A N/A N/A NW20G29 30.16R  

 
 
NDZ004>008-012>016-024-026-027-054-130800-  
NORTHEAST NORTH DAKOTA  
 
CITY SKY/WX TMP DP RH WIND PRES REMARKS
 
GRAND FORKS LGT SNOW 26 21 81 NW17G29 29.92R WCI 13  
GRND FRKS AFB FLURRIES 25 25 99 NW17G24 29.93R WCI 12  
DEVILS LAKE FLURRIES 22 18 85 NW21 29.99S WCI 6  

 
 
NDZ022-023-025-028>030-036>039-047>053-130800-  
SOUTHEAST NORTH DAKOTA  
 
CITY SKY/WX TMP DP RH WIND PRES REMARKS
 
FARGO CLOUDY 26 22 84 W20 29.95R WCI 12  
JAMESTOWN FLURRIES 23 19 85 NW14 29.98S WCI 11  

 
 
 
 
CLICK HERE TO GO TO PREVIOUS BULLETINS.

The Nexlab ND Page Main Text Page